Location: Eymir
(36.7333°N, 29.7833°E)
Time: 14:39:39
(UTC+00:00)

Cosmos 1992 Rocket - Visible Passes

Search period start: 19 April 2026 00:00
Search period end: 29 April 2026 00:00
Orbit: 754 x 761 km, 74.0° (Epoch: 19 April)

Date Brightness Start Highest point End Pass type
(mag) Time Alt. Az. Time Alt. Az. Time Alt. Az.
19 Apr 5.8 00:23:52 21° NNW 00:23:52 21° NNW 00:26:14 10° N visible
19 Apr 5.9 23:44:16 24° N 23:44:16 24° N 23:46:27 10° N visible
20 Apr 6.3 23:04:38 21° NNE 23:04:38 21° NNE 23:06:18 10° NNE visible
21 Apr 6.4 00:44:40 11° NW 00:44:40 11° NW 00:45:16 10° NW visible
21 Apr 6.6 22:25:00 14° NE 22:25:00 14° NE 22:25:49 10° NNE visible
22 Apr 6.2 00:05:01 17° NNW 00:05:01 17° NNW 00:06:49 10° NNW visible
22 Apr 6.1 23:25:21 21° NNW 23:25:21 21° NNW 23:27:16 10° N visible
23 Apr 6.3 22:45:40 20° N 22:45:40 20° N 22:47:17 10° NNE visible
24 Apr 6.5 22:05:57 16° NNE 22:05:57 16° NNE 22:06:59 10° NNE visible
24 Apr 6.4 23:45:58 13° NW 23:45:58 13° NW 23:47:11 10° NNW visible
25 Apr 6.8 21:26:13 10° NE 21:26:13 10° NE 21:26:17 10° NE visible
25 Apr 6.3 23:06:14 18° NNW 23:06:14 18° NNW 23:07:59 10° N visible
26 Apr 6.3 22:26:27 21° N 22:26:27 21° N 22:28:11 10° N visible
27 Apr 6.4 21:46:40 19° NNE 21:46:40 19° NNE 21:48:03 10° NNE visible
27 Apr 6.6 23:26:41 10° NW 23:26:41 10° NW 23:26:57 10° NW visible
28 Apr 6.5 21:06:51 14° NE 21:06:51 14° NE 21:07:34 10° NNE visible
28 Apr 6.4 22:46:51 16° NNW 22:46:51 16° NNW 22:48:33 10° NNW visible
